Bookmark and Share
Track history (hours):
 

Szafir

Last reported at 2014-Apr-18 16:26 UTC. Time now 2014-Apr-25 06:25 UTC.
Position S 34°05' E 018°02'.

Length 113 m; draft 5.8 m.

Type: Ship. MMSI: 209366000.

NotesDate/timePositionNaut miles runAvg speedWind from/ knotsBaromVisibWave heightAir tempDewpointWater temp
2014-Apr-18 16:26S 34°05' E 018°02'1212.5
2014-Apr-18 15:31S 34°14' E 018°11'1212.5
2014-Apr-18 14:33S 34°23' E 018°21'1212.5
2014-Apr-18 13:33S 34°31' E 018°32'1212.4
2014-Apr-18 12:33S 34°37' E 018°45'1212.4
2014-Apr-18 11:33S 34°42' E 018°59'5412.1
2014-Apr-18 07:07S 35°03' E 019°59'3111.9
2014-Apr-18 04:29S 34°59' E 020°37'6011.7
2014-Apr-17 23:21S 34°50' E 021°50'1112.1
2014-Apr-17 22:24S 34°49' E 022°04'10212.5
2014-Apr-17 14:16S 34°34' E 024°06'1313.1
2014-Apr-17 13:14S 34°32' E 024°22'6012.9
2014-Apr-17 08:33S 34°20' E 025°34'8613.9
2014-Apr-17 02:24S 33°51' E 027°12'21412.5
2014-Apr-16 09:15S 31°24' E 030°17'7611.1
2014-Apr-16 02:24S 30°18' E 030°59'8 8.6
2014-Apr-16 01:29S 30°11' E 031°03'8 8.8
2014-Apr-16 00:32S 30°03' E 031°05'9 8.7
2014-Apr-15 23:33S 29°54' E 031°05'4 4.5
2014-Apr-15 22:33S 29°52' E 031°01'0 0.0
2014-Apr-14 15:31S 29°53' E 031°00'0 0.0
2014-Apr-14 11:31S 29°53' E 031°00'0 0.0
2014-Apr-14 09:31S 29°53' E 031°00'2 0.5
2014-Apr-14 06:33S 29°53' E 031°02'5 5.4
2014-Apr-14 05:33S 29°49' E 031°07'5 0.6
2014-Apr-13 21:30S 29°47' E 031°12'0 0.0
2014-Apr-13 20:30S 29°47' E 031°12'0 0.0
2014-Apr-13 19:29S 29°47' E 031°12'0 0.0
2014-Apr-13 18:24S 29°47' E 031°12'1 0.6
2014-Apr-13 17:33S 29°46' E 031°12'10 9.6
2014-Apr-13 16:33S 29°39' E 031°19'1413.6
2014-Apr-13 15:33S 29°30' E 031°31'1513.3
2014-Apr-13 14:28S 29°21' E 031°44'1213.3
2014-Apr-13 13:33S 29°13' E 031°54'1514.7
2014-Apr-13 12:33S 29°03' E 032°06'  

Dump ship's entire track history

sailing weather and tide predictions

Szafir — 5BFC3 — position and weather